DW4238 Weather Reports


time (UTC)temp
C
wind
direction
speed
KPH
gust
KPH
rain 1hr
cm
rain 24hr
cm
rain mn
cm
humidity
%
barometer
mb
20260506185618 22 29 6.4 9.7 0.00 0.00 0.00 84 1009.4
20260506185121 22 16 6.4 14.5 0.00 0.00 0.00 83 1009.4
20260506184547 22 37 8.0 14.5 0.00 0.00 0.00 84 1009.6
20260506184032 22 44 4.8 17.7 0.00 0.00 0.00 85 1009.6
20260506183036 21 331 8.0 20.9 0.00 0.00 0.00 85 1009.5
20260506182547 21 13 14.5 20.9 0.00 0.00 0.00 84 1009.7
20260506181606 20 350 11.3 20.9 0.00 0.00 0.00 87 1009.9
20260506181118 20 323 9.7 20.9 0.00 0.00 0.00 86 1010.0
20260506180622 20 348 12.9 22.5 0.00 0.00 0.00 87 1010.1
20260506180047 19 360 14.5 24.1 0.00 0.00 0.00 87 1010.0
20260506175551 19 326 16.1 22.5 0.00 0.00 0.00 87 1010.2
20260506175101 19 319 14.5 32.2 0.00 0.00 0.00 87 1010.2
20260506174531 19 343 19.3 29.0 0.00 0.00 0.00 86 1010.4
20260506174035 19 355 17.7 27.4 0.00 0.00 0.00 86 1010.3
20260506173055 20 360 9.7 25.7 0.00 0.00 0.00 87 1010.6
20260506172606 20 349 17.7 25.7 0.00 0.00 0.00 86 1010.7
20260506171604 22 360 12.9 33.8 0.00 0.00 0.00 83 1010.9
20260506171114 25 308 16.1 33.8 0.00 0.00 0.00 83 1010.9
20260506170618 26 144 1.6 3.2 0.00 0.00 0.00 87 1010.6
20260506170023 26 144 0.0 3.2 0.00 0.00 0.00 87 1010.7
20260506165538 26 144 1.6 3.2 0.00 0.00 0.00 87 1010.7
20260506165138 26 136 1.6 3.2 0.00 0.00 0.00 87 1010.7
20260506164547 26 144 0.0 3.2 0.00 0.00 0.00 87 1010.6
20260506163631 26 140 0.0 0.0 0.00 0.00 0.00 87 1010.7
20260506163038 26 140 0.0 0.0 0.00 0.00 0.00 87 1010.8
20260506162543 26 140 0.0 0.0 0.00 0.00 0.00 87 1010.8
20260506161611 25 140 0.0 6.4 0.00 0.00 0.00 88 1010.8
20260506161053 25 140 4.8 6.4 0.00 0.00 0.00 88 1010.7
20260506160113 25 138 4.8 8.0 0.00 0.00 0.00 88 1010.1
20260506155526 25 194 0.0 1.6 0.00 0.00 0.00 88 1010.0
20260506154547 25 204 0.0 0.0 0.00 0.00 0.00 88 1009.7
20260506154035 25 204 0.0 0.0 0.00 0.00 0.00 88 1009.7
20260506153035 25 174 1.6 11.3 0.00 0.00 0.00 88 1009.7
20260506152546 25 173 3.2 11.3 0.00 0.00 0.00 88 1009.6
20260506151608 25 148 4.8 9.7 0.00 0.00 0.00 89 1009.5
20260506151110 25 148 4.8 9.7 0.00 0.00 0.00 89 1009.5
20260506150622 25 107 4.8 9.7 0.00 0.00 0.00 89 1009.4
20260506150036 25 107 4.8 8.0 0.00 0.00 0.00 89 1009.7
20260506145535 25 212 0.0 6.4 0.00 0.00 0.00 89 1009.7
20260506144534 25 228 1.6 3.2 0.00 0.00 0.00 89 1009.8
20260506144046 25 163 0.0 4.8 0.00 0.00 0.00 89 1009.7
20260506143105 25 164 6.4 11.3 0.00 0.00 0.00 89 1009.3
20260506142618 25 164 6.4 12.9 0.00 0.00 0.00 89 1009.2
20260506142121 25 150 4.8 11.3 0.00 0.00 0.00 89 1009.1
20260506141547 25 123 4.8 12.9 0.00 0.00 0.00 89 1009.0
20260506141101 25 140 6.4 14.5 0.00 0.00 0.00 90 1008.9
20260506135604 25 122 6.4 11.3 0.00 0.00 0.00 90 1008.8
20260506135115 24 135 6.4 11.3 0.00 0.00 0.00 90 1008.8
20260506134542 24 171 6.4 12.9 0.00 0.00 0.00 90 1008.9
20260506134046 24 163 8.0 14.5 0.00 0.00 0.00 90 1008.8
20260506133534 24 154 9.7 14.5 0.00 0.00 0.00 90 1008.9
20260506133139 24 148 9.7 16.1 0.00 0.00 0.00 90 1008.8
20260506132526 24 149 11.3 16.1 0.00 0.00 0.00 90 1008.8
20260506131549 24 150 8.0 14.5 0.00 0.00 0.00 90 1008.8
20260506131059 24 148 8.0 12.9 0.00 0.00 0.00 90 1008.8
20260506130558 24 147 6.4 8.0 0.00 0.00 0.00 90 1008.8
20260506130030 24 142 6.4 8.0 0.00 0.00 0.00 90 1008.8
20260506125531 24 138 6.4 9.7 0.00 0.00 0.00 90 1008.8
20260506124600 24 162 6.4 9.7 0.00 0.00 0.00 90 1008.7
20260506124043 24 153 6.4 11.3 0.00 0.00 0.00 90 1008.7
20260506123045 24 163 8.0 11.3 0.00 0.00 0.00 90 1008.7
20260506122600 24 162 8.0 9.7 0.00 0.00 0.00 90 1008.7
20260506122059 24 161 6.4 9.7 0.00 0.00 0.00 90 1008.6
20260506121529 24 151 6.4 9.7 0.00 0.00 0.00 90 1008.6
20260506121041 24 182 1.6 8.0 0.00 0.00 0.00 90 1008.6
20260506120059 24 182 4.8 8.0 0.00 0.00 0.00 90 1008.7
20260506115603 24 187 4.8 8.0 0.00 0.00 0.00 90 1008.6
20260506115115 24 188 4.8 8.0 0.00 0.00 0.00 90 1008.5
20260506114540 24 129 6.4 9.7 0.00 0.00 0.00 90 1008.5
20260506114048 24 163 6.4 9.7 0.00 0.00 0.00 90 1008.4
20260506113047 24 157 6.4 9.7 0.00 0.00 0.00 90 1008.2
20260506112559 24 179 4.8 8.0 0.00 0.00 0.00 90 1008.2
20260506112051 24 174 4.8 11.3 0.00 0.00 0.00 90 1008.2
20260506111533 24 167 8.0 11.3 0.00 0.00 0.00 90 1008.2
20260506111042 24 160 8.0 11.3 0.00 0.00 0.00 90 1008.1
20260506110100 24 180 3.2 9.7 0.00 0.00 0.00 90 1008.1
20260506105611 24 202 4.8 11.3 0.00 0.00 0.00 90 1008.1
20260506104543 24 187 8.0 12.9 0.00 0.00 0.00 90 1008.0
20260506104056 24 172 6.4 12.9 0.00 0.00 0.00 90 1008.0
20260506103119 24 188 6.4 12.9 0.00 0.00 0.00 90 1007.8
20260506102528 24 185 9.7 14.5 0.00 0.00 0.00 90 1007.7
20260506102121 24 185 6.4 14.5 0.00 0.00 0.00 90 1007.6
20260506101537 24 150 11.3 16.1 0.00 0.00 0.00 90 1007.5
20260506101047 24 172 8.0 16.1 0.00 0.00 0.00 90 1007.5
20260506100106 24 183 9.7 16.1 0.00 0.00 0.00 90 1007.2
20260506095548 24 186 9.7 19.3 0.00 0.00 0.00 90 1007.1
20260506094611 24 191 11.3 16.1 0.00 0.00 0.00 90 1007.1
20260506094122 24 155 12.9 17.7 0.00 0.00 0.00 89 1007.1
20260506093121 24 172 16.1 22.5 0.00 0.00 0.00 89 1007.1
20260506092631 24 170 11.3 16.1 0.00 0.00 0.00 90 1007.2
20260506092111 24 178 9.7 19.3 0.00 0.00 0.00 90 1007.2
20260506091539 24 196 11.3 19.3 0.00 0.00 0.00 90 1007.1
20260506091042 24 192 12.9 20.9 0.00 0.00 0.00 90 1007.0
20260506090045 24 179 11.3 19.3 0.00 0.00 0.00 90 1006.9
20260506085536 24 184 14.5 19.3 0.00 0.00 0.00 90 1006.9
20260506085123 24 174 14.5 19.3 0.00 0.00 0.00 90 1006.9
20260506084546 24 175 11.3 16.1 0.00 0.00 0.00 90 1006.9
20260506084035 24 170 11.3 16.1 0.00 0.00 0.00 90 1006.9
20260506083058 24 171 16.1 20.9 0.00 0.00 0.00 90 1006.8
20260506082608 24 171 16.1 24.1 0.00 0.00 0.00 90 1006.9
20260506082110 24 158 16.1 24.1 0.00 0.00 0.00 90 1006.9
20260506081534 24 178 14.5 24.1 0.00 0.00 0.00 90 1007.0
20260506081037 24 169 17.7 24.1 0.00 0.00 0.00 90 1006.9
20260506080108 24 139 12.9 27.4 0.00 0.00 0.00 90 1007.0
20260506073026 24 157 20.9 29.0 0.00 0.00 0.00 90 1007.2
20260506072539 24 200 19.3 29.0 0.00 0.00 0.00 90 1007.2
20260506071558 24 191 16.1 30.6 0.00 0.00 0.00 90 1007.3
20260506071116 24 147 20.9 30.6 0.00 0.00 0.00 90 1007.4
20260506070525 24 148 17.7 27.4 0.00 0.00 0.00 89 1007.5
20260506062024 24 158 17.7 27.4 0.00 0.00 0.00 89 1007.8
20260506061543 24 175 14.5 22.5 0.00 0.00 0.00 90 1007.9
20260506061052 24 148 16.1 22.5 0.00 0.00 0.00 89 1007.9
20260506060541 24 148 16.1 27.4 0.00 0.00 0.00 89 1007.9
20260506051040 24 150 17.7 24.1 0.00 0.00 0.00 89 1007.8
20260506050549 24 155 19.3 29.0 0.00 0.00 0.00 89 1007.8
20260506045053 24 162 16.1 22.5 0.00 0.00 0.00 89 1007.9
20260506044525 24 134 14.5 24.1 0.00 0.00 0.00 88 1007.9
20260506044028 25 162 16.1 24.1 0.00 0.00 0.00 88 1008.0
20260506043635 25 140 14.5 22.5 0.00 0.00 0.00 88 1008.0
20260506043046 25 157 16.1 25.7 0.00 0.00 0.00 87 1007.9
20260506042528 25 161 17.7 24.1 0.00 0.00 0.00 87 1008.0
20260506041601 25 154 17.7 24.1 0.00 0.00 0.00 88 1007.8
20260506041100 25 175 16.1 24.1 0.00 0.00 0.00 88 1007.8
20260506040610 25 169 12.9 20.9 0.00 0.00 0.00 88 1007.6
20260506040028 25 163 12.9 24.1 0.00 0.00 0.00 87 1007.5
20260506035539 25 166 14.5 24.1 0.00 0.00 0.00 87 1007.4
20260506034602 25 171 16.1 22.5 0.00 0.00 0.00 87 1007.2
20260506034112 25 184 16.1 22.5 0.00 0.00 0.00 86 1007.1
20260506033108 25 184 19.3 25.7 0.00 0.00 0.00 86 1006.9
20260506032549 25 150 20.9 29.0 0.00 0.00 0.00 86 1006.9
20260506032056 25 153 17.7 29.0 0.00 0.00 0.00 85 1006.9
20260506031526 25 165 19.3 30.6 0.00 0.00 0.00 85 1007.0
20260506031031 25 179 19.3 32.2 0.00 0.00 0.00 85 1006.9
20260506030035 25 181 16.1 25.7 0.00 0.00 0.00 85 1006.9
20260506025550 25 159 16.1 24.1 0.00 0.00 0.00 85 1006.9
20260506024545 25 165 12.9 27.4 0.00 0.00 0.00 84 1006.8
20260506024032 25 156 16.1 27.4 0.00 0.00 0.00 84 1006.8
20260506023053 25 172 12.9 24.1 0.00 0.00 0.00 84 1006.7
20260506022541 25 180 14.5 24.1 0.00 0.00 0.00 84 1006.6
20260506021601 25 186 14.5 19.3 0.00 0.00 0.00 83 1006.6
20260506021104 25 153 11.3 19.3 0.00 0.00 0.00 83 1006.6
20260506020043 26 167 14.5 24.1 0.00 0.00 0.00 83 1006.5
20260506015556 26 180 14.5 24.1 0.00 0.00 0.00 83 1006.5
20260506015054 26 171 12.9 19.3 0.00 0.00 0.00 83 1006.4
20260506014524 26 180 14.5 19.3 0.00 0.00 0.00 83 1006.2
20260506014036 26 163 14.5 22.5 0.00 0.00 0.00 83 1006.2
20260506013057 26 177 14.5 22.5 0.00 0.00 0.00 82 1006.0
20260506012600 26 175 14.5 25.7 0.00 0.00 0.00 82 1005.8
20260506012110 26 168 16.1 24.1 0.00 0.00 0.00 82 1005.8
20260506011528 26 165 16.1 27.4 0.00 0.00 0.00 82 1005.6
20260506011043 26 182 16.1 30.6 0.00 0.00 0.00 82 1005.6
20260506010104 26 152 20.9 27.4 0.00 0.00 0.00 81 1005.5
20260506005614 26 157 19.3 27.4 0.00 0.00 0.00 81 1005.4
20260506005116 26 166 17.7 25.7 0.00 0.00 0.00 81 1005.4
20260506004543 26 175 14.5 27.4 0.00 0.00 0.00 80 1005.4
20260506004024 26 146 17.7 27.4 0.00 0.00 0.00 80 1005.4
20260506003614 27 155 17.7 24.1 0.00 0.00 0.00 80 1005.3
20260506003041 27 155 17.7 24.1 0.00 0.00 0.00 80 1005.3
20260506002544 27 171 16.1 24.1 0.00 0.00 0.00 80 1005.4
20260506001608 27 172 17.7 29.0 0.00 0.00 0.00 79 1005.4
20260506001118 27 161 14.5 17.7 0.00 0.00 0.00 80 1005.3
20260506000555 27 175 11.3 29.0 0.00 0.00 0.00 80 1005.5
20260506000024 27 170 19.3 29.0 0.00 0.00 0.00 79 1005.5
20260505235535 27 158 11.3 27.4 0.00 0.00 0.00 80 1005.5
20260505234555 27 178 17.7 27.4 0.00 0.00 0.00 79 1005.3
20260505234058 27 165 19.3 29.0 0.00 0.00 0.00 79 1005.3
20260505233100 27 161 19.3 29.0 0.00 0.00 0.00 79 1005.3
20260505232603 27 160 20.9 29.0 0.00 0.00 0.00 78 1005.1
20260505231606 27 149 17.7 29.0 0.00 0.00 0.00 78 1005.3
20260505231034 27 158 16.1 24.1 0.00 0.00 0.00 78 1005.3
20260505225526 27 166 22.5 25.7 0.00 0.00 0.00 77 1005.1
20260505225133 28 166 14.5 27.4 0.00 0.00 0.00 77 1005.0
20260505224537 28 182 19.3 27.4 0.00 0.00 0.00 78 1004.9
20260505224042 28 180 14.5 27.4 0.00 0.00 0.00 78 1005.1
20260505223608 28 146 20.9 27.4 0.00 0.00 0.00 77 1005.1
20260505223034 28 205 20.9 29.0 0.00 0.00 0.00 74 1005.2
20260505222541 28 182 20.9 33.8 0.00 0.00 0.00 74 1005.3
20260505221601 28 150 17.7 32.2 0.00 0.00 0.00 74 1005.0
20260505221049 28 184 12.9 24.1 0.00 0.00 0.00 75 1005.0
20260505220050 28 167 19.3 35.4 0.00 0.00 0.00 75 1005.0
20260505215602 28 173 16.1 22.5 0.00 0.00 0.00 75 1005.1
20260505214539 28 185 19.3 25.7 0.00 0.00 0.00 74 1005.2
20260505214042 28 192 17.7 25.7 0.00 0.00 0.00 74 1005.3
20260505213049 29 196 19.3 33.8 0.00 0.00 0.00 73 1005.2
20260505212559 29 164 16.1 33.8 0.00 0.00 0.00 73 1005.4
20260505211621 28 191 20.9 27.4 0.00 0.00 0.00 73 1005.5
20260505211032 28 184 17.7 29.0 0.00 0.00 0.00 74 1005.6
20260505210053 29 201 16.1 24.1 0.00 0.00 0.00 74 1005.8
20260505205617 29 178 17.7 29.0 0.00 0.00 0.00 74 1005.9
20260505204617 28 192 19.3 29.0 0.00 0.00 0.00 74 1006.0
20260505204031 28 195 17.7 24.1 0.00 0.00 0.00 75 1006.0
20260505203054 28 181 17.7 25.7 0.00 0.00 0.00 75 1006.3
20260505202543 28 157 17.7 27.4 0.00 0.00 0.00 76 1006.3
20260505201604 28 207 17.7 29.0 0.00 0.00 0.00 75 1006.4
20260505201053 28 162 19.3 27.4 0.00 0.00 0.00 73 1006.5
20260505200052 28 195 16.1 27.4 0.00 0.00 0.00 76 1006.6
20260505195533 28 227 20.9 27.4 0.00 0.00 0.00 76 1006.6
20260505194601 28 170 16.1 29.0 0.00 0.00 0.00 76 1006.7
20260505194108 28 198 20.9 29.0 0.00 0.00 0.00 74 1006.7
20260505193115 28 219 16.1 33.8 0.00 0.00 0.00 75 1006.9
20260505192557 28 182 17.7 30.6 0.00 0.00 0.00 75 1006.8
20260505192103 28 184 16.1 27.4 0.00 0.00 0.00 76 1007.0
20260505191527 27 178 20.9 27.4 0.00 0.00 0.00 77 1007.0
20260505191140 27 205 19.3 25.7 0.00 0.00 0.00 76 1007.1
20260505190557 28 200 17.7 24.1 0.00 0.00 0.00 76 1007.1
20260505190030 28 184 17.7 32.2 0.00 0.00 0.00 76 1007.1